Regional Weather Roundup
Issued by NWS Sioux Falls, SD

Home | Current Version | Previous Version | Text Only | Print | Product List | Glossary On
Versions: 1 2 3 4 5 6 7 8 9 10 11 12 13 14 15 16 17 18 19 20 21 22 23 24 25 26 27 28 29 30 31 32 33 34 35 36 37 38 39 40 41 42 43 44 45 46 47 48 49 50
142
ASUS43 KFSD 062002
RWRFSD

WEATHER ROUNDUP FOR SE SOUTH DAKOTA/SW MINNESOTA/NW IOWA
NATIONAL WEATHER SERVICE SIOUX FALLS SD
200 PM CST SAT FEB 06 2016

NOTE: "FAIR" INDICATES FEW OR NO CLOUDS BELOW 12,000 FEET WITH NO
SIGNIFICANT WEATHER AND OR OBSTRUCTIONS TO VISIBILITY.


SDZ038>040-050-052>070-062100-
SOUTHEAST SOUTH DAKOTA

CITY           SKY/WX    TMP DP  RH WIND       PRES   REMARKS
BROOKINGS      CLOUDY    36  27  69 S15       29.87F
CHAMBERLAIN    NOT AVBL
HURON          CLOUDY    39  29  67 S13       29.87F
MADISON        FAIR      34  32  93 S13       29.89F WCI  25
MITCHELL       CLOUDY    40  30  67 S13       29.92F
SIOUX FALLS    PTSUNNY   34  23  64 S13       29.95F WCI  25
WINNER         FAIR      44  28  53 SW15G22   29.90F
YANKTON        CLOUDY    37  21  52 SW13      29.98F
$$

MNZ071-072-080-081-089-090-097-098-062100-
SOUTHWEST MINNESOTA

CITY           SKY/WX    TMP DP  RH WIND       PRES   REMARKS
FAIRMONT       MOSUNNY   32  27  80 S15G21    30.00F WCI  22
JACKSON        MOSUNNY   34  27  75 SW16G24   29.98F WCI  23
LUVERNE        MOSUNNY   34  28  80 S14       29.97F WCI  24
MARSHALL       CLOUDY    36  25  64 SW24      29.85F
MONTEVIDEO     MOSUNNY   37  28  70 SW15      29.86F
PIPESTONE        N/A     34  21  60 SW16      29.92F WCI  23
REDWOOD FALLS  MOSUNNY   36  25  64 SW17      29.90F
TRACY          MOSUNNY   34  26  70 SW25      29.90F WCI  22
WINDOM         MOSUNNY   34  27  75 S18G24    29.95F WCI  23
WORTHINGTON    MOSUNNY   34  23  64 S20       29.97F WCI  22
$$

IAZ001>003-012>014-020>022-031-032-NEZ013-014-SDZ071-062100-
NORTHWEST IOWA

CITY           SKY/WX    TMP DP  RH WIND       PRES   REMARKS
ESTHERVILLE    MOSUNNY   33  27  78 SW18      30.01F WCI  22
SIOUX CITY     MOSUNNY   38  26  62 S14       30.04F
SPENCER        SUNNY     35  27  72 S15       30.01F WCI  25
STORM LAKE     MIX PCPN  32  32 100 SW15      30.04F WCI  22
$$

ABBREVIATIONS USED IN REMARKS
   TC - TEMPERATURE IN CELSIUS
  WCI - WIND CHILL INDEX
   HX - HEAT INDEX
  VSB - VISIBILITY





USA.gov is the U.S. government's official web portal to all federal, state and local government web resources and services.